Mount Pleasant, TX

10:07 AM CDT on June 21, 2018 (GMT -0500)
Mount Pleasant

Weather History for KOSA - November, 2017

Change the Weather History Date:

Wednesday, November 15, 2017

  Actual Average (KGGG) Record (KGGG)
Temperature  
Mean Temperature 67 °F -  
Max Temperature 73 °F 64 °F 87 °F (1955)
Min Temperature 61 °F 44 °F 21 °F (1916)
Cooling Degree Days 2    
Growing Degree Days 17 (Base 50)    
Moisture  
Dew Point 61 °F    
Average Humidity 82    
Maximum Humidity 97    
Minimum Humidity 68    
Precipitation  
Precipitation 0.00 in - - ()
Sea Level Pressure  
Sea Level Pressure 30.05 in    
Wind  
Wind Speed 5 mph (South)    
Max Wind Speed 13 mph    
Max Gust Speed 17 mph    
Visibility 10 miles    
Events      
Averages and records for this station are not official NWS values.
T = Trace of Precipitation, MM = Missing Value Source: NWS Daily Summary

Daily Weather History Graph

Daily Weather History Graph

Search for Another Location

Airport or City:

Astronomy

Nov. 15, 2017 Rise Set
Actual Time 6:50 AM CST 5:17 PM CST
Civil Twilight 6:24 AM CST 5:44 PM CST
Nautical Twilight 5:54 AM CST 6:13 PM CST
Astronomical Twilight 5:25 AM CST 6:43 PM CST
Moon 4:04 AM CST (11/15) 4:03 PM CST (11/15)
Length of Visible Light 11h 19m
Length of Day
10h 26m
Waning Crescent, 7% of the Moon is Illuminated
Nov 15
Waning Crescent
Nov 18
New
Nov 26
First Quarter
Dec 3
Full
Dec 10
Last Quarter

Hourly Weather History & Observations

Time (CST) Temp. Dew Point Humidity Pressure Visibility Wind Dir Wind Speed Gust Speed Precip Events Conditions
12:15 AM 61.9 °F 57.2 °F 85% 30.02 in 10.0 mi SE 5.8 mph - N/A   Scattered Clouds
12:35 AM 61.7 °F 57.2 °F 85% 30.02 in 10.0 mi SE 5.8 mph - N/A   Scattered Clouds
12:55 AM 61.9 °F 57.2 °F 85% 30.01 in 10.0 mi ESE 5.8 mph - N/A   Scattered Clouds
1:15 AM 62.2 °F 57.2 °F 84% 30.01 in 10.0 mi SE 5.8 mph - N/A   Scattered Clouds
1:35 AM 62.2 °F 57.4 °F 84% 30.01 in 10.0 mi SE 4.6 mph - N/A   Scattered Clouds
1:55 AM 62.2 °F 57.4 °F 84% 30.01 in 10.0 mi SSE 4.6 mph - N/A   Scattered Clouds
2:15 AM 62.4 °F 57.6 °F 84% 30.01 in 10.0 mi SE 4.6 mph - N/A   Scattered Clouds
2:35 AM 62.4 °F 57.6 °F 84% 30.02 in 10.0 mi SE 3.5 mph - N/A   Scattered Clouds
2:55 AM 62.2 °F 57.7 °F 85% 30.02 in 10.0 mi SE 3.5 mph - N/A   Clear
3:15 AM 62.6 °F 57.9 °F 85% 30.01 in 10.0 mi SE 4.6 mph - N/A   Clear
3:35 AM 63.0 °F 58.1 °F 84% 30.01 in 10.0 mi SSE 4.6 mph - N/A   Clear
3:55 AM 63.5 °F 58.3 °F 83% 30.00 in 10.0 mi SSE 8.1 mph - N/A   Clear
4:15 AM 63.5 °F 58.1 °F 83% 29.99 in 10.0 mi SSE 8.1 mph - N/A   Scattered Clouds
4:35 AM 63.5 °F 58.1 °F 83% 29.99 in 10.0 mi SSE 6.9 mph - N/A   Scattered Clouds
4:55 AM 63.5 °F 57.9 °F 82% 30.00 in - South 4.6 mph - N/A   Scattered Clouds
5:15 AM 63.7 °F 57.9 °F 81% 30.00 in 10.0 mi SSE 9.2 mph - N/A   Scattered Clouds
5:35 AM 63.5 °F 57.6 °F 81% 30.00 in 10.0 mi SSE 6.9 mph - N/A   Scattered Clouds
5:55 AM 63.5 °F 57.2 °F 80% 30.00 in 10.0 mi South 8.1 mph - N/A   Scattered Clouds
6:15 AM 63.3 °F 57.2 °F 80% 30.00 in 10.0 mi South 8.1 mph - N/A   Scattered Clouds
6:35 AM 63.3 °F 56.7 °F 79% 30.01 in 10.0 mi South 4.6 mph - N/A   Scattered Clouds
6:55 AM 63.1 °F 56.5 °F 79% 30.02 in 10.0 mi South 5.8 mph - N/A   Scattered Clouds
7:15 AM 63.0 °F 56.5 °F 79% 30.03 in 10.0 mi South 6.9 mph - N/A   Scattered Clouds
7:35 AM 63.5 °F 56.5 °F 78% 30.05 in 10.0 mi South 5.8 mph - N/A   Scattered Clouds
7:55 AM 63.5 °F 56.7 °F 78% 30.05 in 10.0 mi South 5.8 mph - N/A   Clear
8:15 AM 64.0 °F 56.8 °F 77% 30.06 in 10.0 mi South 5.8 mph - N/A   Clear
8:35 AM 64.4 °F 56.5 °F 75% 30.07 in 10.0 mi South 6.9 mph - N/A   Clear
8:55 AM 64.6 °F 56.7 °F 75% 30.09 in 10.0 mi SSW 5.8 mph - N/A   Scattered Clouds
9:15 AM 64.8 °F 56.7 °F 75% 30.09 in 10.0 mi SW 3.5 mph - N/A   Overcast
9:35 AM 64.9 °F 57.7 °F 77% 30.09 in 10.0 mi SSW 6.9 mph - N/A   Mostly Cloudy
9:55 AM 65.1 °F 58.6 °F 79% 30.08 in 10.0 mi SSW 9.2 mph - N/A   Mostly Cloudy
10:15 AM 65.5 °F 59.2 °F 80% 30.08 in 10.0 mi South 9.2 mph - N/A   Scattered Clouds
10:35 AM 66.2 °F 59.9 °F 80% 30.07 in 10.0 mi South 8.1 mph - N/A   Clear
10:55 AM 67.8 °F 60.6 °F 78% 30.06 in 10.0 mi SSW 11.5 mph 16.1 mph N/A   Clear
11:15 AM 69.8 °F 61.2 °F 74% 30.06 in 10.0 mi SSW 12.7 mph 17.3 mph N/A   Clear
11:35 AM 71.8 °F 61.7 °F 70% 30.06 in 10.0 mi SW 11.5 mph - N/A   Scattered Clouds
11:55 AM 72.7 °F 62.1 °F 69% 30.05 in 10.0 mi SSW 6.9 mph - N/A   Scattered Clouds
12:15 PM 72.1 °F 61.9 °F 70% 30.05 in 10.0 mi WSW 10.4 mph - N/A   Mostly Cloudy
12:35 PM 72.5 °F 62.2 °F 70% 30.05 in 10.0 mi WSW 10.4 mph - N/A   Mostly Cloudy
12:55 PM 73.8 °F 62.8 °F 68% 30.04 in 10.0 mi SW 8.1 mph - N/A   Overcast
1:15 PM 72.9 °F 62.4 °F 70% 30.04 in 10.0 mi WSW 6.9 mph - N/A   Overcast
1:35 PM 72.7 °F 62.6 °F 71% 30.03 in 10.0 mi WSW 4.6 mph - N/A   Overcast
1:55 PM 72.5 °F 62.6 °F 71% 30.03 in 10.0 mi WSW 4.6 mph - N/A   Mostly Cloudy
2:15 PM 72.5 °F 62.4 °F 71% 30.03 in 10.0 mi West 5.8 mph - N/A   Overcast
2:35 PM 72.7 °F 62.6 °F 71% 30.03 in 10.0 mi West 4.6 mph - N/A   Overcast
2:55 PM 72.5 °F 62.6 °F 71% 30.03 in 10.0 mi West 3.5 mph - N/A   Overcast
3:15 PM 72.1 °F 62.6 °F 72% 30.03 in 10.0 mi West 3.5 mph - N/A   Overcast
3:35 PM 72.0 °F 62.8 °F 73% 30.03 in 10.0 mi Calm Calm - N/A   Overcast
3:55 PM 71.6 °F 63.3 °F 75% 30.04 in 10.0 mi Calm Calm - N/A   Overcast
4:15 PM 71.6 °F 63.3 °F 75% 30.05 in 10.0 mi NW 3.5 mph - N/A   Overcast
4:35 PM 70.9 °F 63.5 °F 77% 30.05 in 10.0 mi WNW 4.6 mph - N/A   Overcast
4:55 PM 69.3 °F 64.6 °F 85% 30.06 in 7.0 mi Calm Calm - N/A   Overcast
5:15 PM 68.2 °F 64.6 °F 88% 30.06 in 10.0 mi Calm Calm - N/A   Mostly Cloudy
5:35 PM 69.1 °F 64.4 °F 85% 30.07 in 10.0 mi Calm Calm - N/A   Mostly Cloudy
5:55 PM 67.6 °F 65.1 °F 92% 30.07 in 10.0 mi Calm Calm - N/A   Mostly Cloudy
6:15 PM 67.8 °F 64.9 °F 90% 30.07 in 10.0 mi Calm Calm - N/A   Mostly Cloudy
6:35 PM 67.8 °F 64.2 °F 88% 30.08 in 7.0 mi Calm Calm - N/A   Mostly Cloudy
6:55 PM 67.6 °F 64.4 °F 89% 30.08 in 10.0 mi Calm Calm - N/A   Scattered Clouds
7:15 PM 67.1 °F 64.4 °F 91% 30.09 in 10.0 mi North 3.5 mph - N/A   Mostly Cloudy
7:35 PM 67.3 °F 64.2 °F 90% 30.08 in 10.0 mi Calm Calm - N/A   Overcast
7:55 PM 66.4 °F 64.4 °F 93% 30.09 in 10.0 mi NNE 3.5 mph - N/A   Mostly Cloudy
8:15 PM 66.6 °F 63.9 °F 91% 30.10 in 10.0 mi NNE 8.1 mph - N/A   Mostly Cloudy
8:40 PM 65.8 °F 64.2 °F 94% 30.10 in 7.0 mi NNE 4.6 mph - N/A   Overcast
8:55 PM 65.3 °F 63.9 °F 95% 30.10 in 7.0 mi NNE 8.1 mph - N/A   Overcast
9:15 PM 64.9 °F 63.5 °F 95% 30.11 in 7.0 mi North 6.9 mph - N/A   Overcast
9:35 PM 64.8 °F 63.5 °F 96% 30.11 in 10.0 mi NNE 4.6 mph - N/A   Overcast
10:15 PM 64.4 °F 62.8 °F 94% 30.12 in 10.0 mi Calm Calm - N/A   Overcast
10:35 PM 64.0 °F 62.6 °F 95% 30.12 in 7.0 mi Calm Calm - N/A   Mostly Cloudy
10:55 PM 63.7 °F 62.6 °F 96% 30.12 in 5.0 mi NNE 3.5 mph - N/A   Mostly Cloudy
11:15 PM 63.5 °F 62.6 °F 97% 30.12 in 7.0 mi Calm Calm - N/A   Mostly Cloudy
11:35 PM 63.5 °F 62.6 °F 97% 30.12 in 7.0 mi Calm Calm - N/A   Overcast
11:55 PM 63.5 °F 62.4 °F 96% 30.12 in 7.0 mi Calm Calm - N/A   Overcast